STARLINK-5180 (55318 NORAD) Tracking and Keplerian Element Data

This shows tracking and keplerian element data for the satellite.

Feedback or suggestion? Click here.




ElementValue
Catalog55318
NameSTARLINK-5180
Epoch Orbit1739
Epoch Day127.11214079
Epoch Year2023
RAAN126.4354
Inclination69.9997
Eccentricity0.0003112
Argument of Perigee259.4201
Mean Anonmoly100.6644
Mean Motion15.6992732
Decay Rate2.687E-05
L11 55318U 23010BB 23127.11214079 .00002687 00000+0 24109-4 0 9990
L22 55318 69.9997 126.4354 0003112 259.4201 100.6644 15.69927320 17393



Live tracking and technical data element details for STARLINK-5180 (NORAD 55318). STARLINK-5180 can be tracked NOW for your location showing map with azimuth and elevation plus other details from your city location.







IsCatalogInMostPopularTable: catalog: 55318, numindb: -1

Insert: records affected: 1


GetName: 55318 STARLINK-5180

Hit Count: inserted at: Mon, 05 Jun 2023 20:24:11 GMT